Track STARLINK-4348 now! 10-day predictions STARLINK-4348 is classified as:
1 53075U 22077AJ 22224.58334491 -.01214629 00000-0 -34973-1 0 9991 2 53075 97.6553 44.6488 0001621 90.9313 247.6034 15.38741751 1308